Date,TemperatureHighF,TemperatureAvgF,TemperatureLowF,DewpointHighF,DewpointAvgF,DewpointLowF,HumidityHigh,HumidityAvg,HumidityLow,PressureMaxIn,PressureMinIn,WindSpeedMaxMPH,WindSpeedAvgMPH,GustSpeedMaxMPH,PrecipitationSumIn
2013-1-1,39,35,31,34,30,28,90,83,75,29.95,29.83,9,3,13,0.00
2013-1-2,41,38,35,37,33,30,90,81,68,30.41,29.92,17,7,23,0.01
2013-1-3,43,38,34,40,34,30,93,87,74,30.43,30.33,23,8,32,0.07
2013-1-4,47,45,42,46,42,39,96,91,78,30.43,30.17,28,11,32,0.60
2013-1-5,47,43,40,45,42,39,97,93,88,30.34,30.16,20,7,23,0.16
2013-1-6,42,40,39,41,39,38,98,96,90,30.33,30.12,18,6,22,0.24
2013-1-7,42,38,36,41,37,35,98,97,94,30.36,30.18,10,2,14,0.26
2013-1-8,40,38,36,39,38,35,99,98,96,30.33,30.18,11,3,13,0.10
2013-1-9,41,39,38,40,38,36,98,97,94,30.20,29.89,13,4,19,0.02
2013-1-10,38,36,35,36,34,31,97,90,82,29.89,29.70,20,9,24,0.12
2013-1-11,35,28,25,33,24,19,97,87,78,30.04,29.70,14,6,20,0.00
2013-1-12,28,24,19,22,20,17,93,84,72,30.10,30.02,10,3,13,0.00
2013-1-13,26,23,18,23,20,16,95,89,76,30.11,30.08,9,2,13,0.00
2013-1-14,28,25,21,26,23,20,96,94,89,30.08,29.92,12,2,14,0.00
2013-1-15,26,24,20,24,22,19,96,94,91,29.96,29.77,8,1,11,0.00
2013-1-16,26,25,24,25,24,23,97,95,91,29.79,29.74,8,1,10,0.00
2013-1-17,27,25,23,25,23,22,96,94,91,29.91,29.75,11,4,14,0.00
2013-1-18,24,21,19,22,19,18,95,94,93,29.91,29.73,7,2,12,0.00
2013-1-19,21,19,18,18,17,16,94,91,87,29.73,29.57,9,2,10,0.00
2013-1-20,26,22,20,25,21,18,97,94,90,29.59,29.48,10,3,13,0.00
2013-1-21,26,25,21,26,24,20,97,97,95,29.61,29.46,4,1,7,0.00
2013-1-22,22,20,18,20,18,16,95,92,87,29.81,29.61,4,1,5,0.00
2013-1-23,25,22,19,23,20,17,95,93,91,29.83,29.80,3,1,5,0.00
2013-1-24,24,22,19,23,21,17,96,94,92,30.00,29.80,9,2,11,0.00
2013-1-25,21,18,11,19,16,9,93,91,85,30.18,30.01,11,2,11,0.00
2013-1-26,17,11,2,14,9,0,94,91,88,30.12,30.06,9,2,14,0.00
2013-1-27,30,24,14,29,22,12,97,93,89,30.08,29.79,9,2,10,0.00
2013-1-28,36,32,30,33,31,29,98,96,90,30.11,29.80,10,2,14,0.06
2013-1-29,41,37,32,40,36,31,98,95,86,30.10,29.90,20,7,29,0.42
2013-1-30,54,47,40,49,44,39,98,90,80,29.93,29.68,32,10,36,0.21
2013-1-31,45,43,38,40,35,30,91,74,56,29.96,29.76,29,14,40,0.13